JES3076 SAEZ-SAME

Flight info

Callsign JES3076
Flight time 1h 36m
Altitude 38000
Route URINO1A URINO UL405 PAPIR PAPIR3Q
Aircraft A320/M-SDE3FGHIRWY/LB1

Departure

Time 2026-04-30 00:31
Airport Ezeiza International Airport - Ministro Pistarini (SAEZ)

Arrival

Time 2026-04-30 02:07
Airport Governor Francisco Gabrielli International Airport (SAME)
Time Latitude Longitude Altitude Speed Heading
2026-04-30 00:14 -34.81654 -58.54257 74 ft 0 kts 13°
2026-04-30 00:21 -34.81659 -58.54258 74 ft 2 kts 13°
2026-04-30 00:21 -34.81672 -58.54262 46 ft 2 kts 13°
2026-04-30 00:21 -34.81686 -58.54266 85 ft 2 kts 12°
2026-04-30 00:21 -34.81700 -58.54270 66 ft 2 kts 12°
2026-04-30 00:22 -34.81713 -58.54273 64 ft 2 kts 11°
2026-04-30 00:22 -34.81727 -58.54276 74 ft 2 kts
2026-04-30 00:22 -34.81741 -58.54279 67 ft 2 kts
2026-04-30 00:22 -34.81754 -58.54281 68 ft 2 kts 358°
2026-04-30 00:23 -34.81765 -58.54279 67 ft 1 kts 334°
2026-04-30 00:23 -34.81773 -58.54273 70 ft 1 kts 298°
2026-04-30 00:23 -34.81776 -58.54266 68 ft 1 kts 282°
2026-04-30 00:23 -34.81777 -58.54259 67 ft 1 kts 277°
2026-04-30 00:24 -34.81777 -58.54252 70 ft 1 kts 275°
2026-04-30 00:24 -34.81778 -58.54249 69 ft 0 kts 275°
2026-04-30 00:27 -34.81774 -58.54292 70 ft 10 kts 279°
2026-04-30 00:27 -34.81755 -58.54417 70 ft 19 kts 278°
2026-04-30 00:27 -34.81751 -58.54556 65 ft 0 kts 242°
2026-04-30 00:28 -34.81758 -58.54573 67 ft 5 kts 244°
2026-04-30 00:28 -34.81774 -58.54639 71 ft 11 kts 253°
2026-04-30 00:28 -34.81777 -58.54749 74 ft 15 kts 274°
2026-04-30 00:28 -34.81754 -58.54895 72 ft 20 kts 283°
2026-04-30 00:29 -34.81722 -58.55072 70 ft 23 kts 282°
2026-04-30 00:29 -34.81696 -58.55248 68 ft 19 kts 267°
2026-04-30 00:29 -34.81792 -58.55339 71 ft 20 kts 169°
2026-04-30 00:29 -34.81892 -58.55319 66 ft 10 kts 197°
2026-04-30 00:30 -34.81913 -58.55296 74 ft 0 kts 101°
2026-04-30 00:30 -34.81913 -58.55295 74 ft 1 kts 101°
2026-04-30 00:30 -34.81950 -58.55093 71 ft 76 kts 103°
2026-04-30 00:31 -34.82134 -58.54053 98 ft 166 kts 102°
2026-04-30 00:31 -34.82375 -58.52627 980 ft 175 kts 102°
2026-04-30 00:31 -34.82547 -58.51097 1833 ft 194 kts 93°
2026-04-30 00:31 -34.82682 -58.49374 2562 ft 218 kts 104°
2026-04-30 00:32 -34.83080 -58.47489 3472 ft 241 kts 108°
2026-04-30 00:32 -34.83557 -58.45439 4495 ft 262 kts 108°
2026-04-30 00:32 -34.84365 -58.43393 5599 ft 275 kts 128°
2026-04-30 00:32 -34.85748 -58.41760 6793 ft 281 kts 148°
2026-04-30 00:33 -34.87439 -58.40597 7961 ft 287 kts 159°
2026-04-30 00:33 -34.89340 -58.39835 9225 ft 288 kts 173°
2026-04-30 00:33 -34.91328 -58.39684 10533 ft 285 kts 189°
2026-04-30 00:33 -34.93237 -58.40202 11789 ft 282 kts 206°
2026-04-30 00:34 -34.94906 -58.41537 12526 ft 298 kts 228°
2026-04-30 00:34 -34.96106 -58.43688 13173 ft 316 kts 244°
2026-04-30 00:34 -34.97001 -58.46158 14202 ft 321 kts 248°
2026-04-30 00:34 -34.97853 -58.48695 15312 ft 323 kts 248°
2026-04-30 00:35 -34.98601 -58.51298 16365 ft 327 kts 254°
2026-04-30 00:35 -34.99095 -58.54013 17407 ft 330 kts 260°
2026-04-30 00:35 -34.99315 -58.56822 18421 ft 334 kts 266°
2026-04-30 00:35 -34.99435 -58.59663 19318 ft 337 kts 265°
2026-04-30 00:36 -34.99570 -58.62492 20218 ft 340 kts 265°
2026-04-30 00:36 -34.99712 -58.65387 21112 ft 343 kts 264°
2026-04-30 00:36 -34.99855 -58.68317 21996 ft 347 kts 264°
2026-04-30 00:36 -35.00000 -58.71269 22869 ft 350 kts 264°
2026-04-30 00:37 -35.00144 -58.74248 23706 ft 353 kts 264°
2026-04-30 00:37 -35.00289 -58.77255 24446 ft 355 kts 263°
2026-04-30 00:37 -35.00322 -58.80282 25185 ft 361 kts 271°
2026-04-30 00:37 -34.99805 -58.83328 25874 ft 370 kts 277°
2026-04-30 00:38 -34.99161 -58.86379 26520 ft 374 kts 277°
2026-04-30 00:38 -34.98498 -58.89460 27165 ft 377 kts 277°
2026-04-30 00:38 -34.97843 -58.92524 27778 ft 380 kts 276°
2026-04-30 00:38 -34.97181 -58.95654 28373 ft 383 kts 276°
2026-04-30 00:39 -34.96519 -58.98807 28961 ft 386 kts 276°
2026-04-30 00:39 -34.95853 -59.01989 29509 ft 388 kts 275°
2026-04-30 00:39 -34.95181 -59.05197 30053 ft 392 kts 275°
2026-04-30 00:39 -34.94504 -59.08424 30533 ft 394 kts 275°
2026-04-30 00:40 -34.93823 -59.11669 31026 ft 396 kts 275°
2026-04-30 00:40 -34.93137 -59.14928 31569 ft 396 kts 275°
2026-04-30 00:40 -34.92453 -59.18169 32229 ft 394 kts 275°
2026-04-30 00:40 -34.91772 -59.21384 32891 ft 391 kts 275°
2026-04-30 00:41 -34.91093 -59.24596 33551 ft 389 kts 275°
2026-04-30 00:41 -34.90422 -59.27774 34160 ft 386 kts 275°
2026-04-30 00:41 -34.89756 -59.30928 34686 ft 384 kts 275°
2026-04-30 00:41 -34.89090 -59.34081 35200 ft 382 kts 276°
2026-04-30 00:42 -34.88451 -59.37104 35676 ft 381 kts 276°
2026-04-30 00:42 -34.87790 -59.40224 36149 ft 380 kts 276°
2026-04-30 00:42 -34.87130 -59.43331 36619 ft 378 kts 276°
2026-04-30 00:42 -34.86471 -59.46432 37075 ft 377 kts 276°
2026-04-30 00:43 -34.85814 -59.49515 37535 ft 376 kts 276°
2026-04-30 00:43 -34.85159 -59.52582 37896 ft 374 kts 276°
2026-04-30 00:43 -34.84512 -59.55610 37990 ft 373 kts 276°
2026-04-30 00:44 -34.83210 -59.61708 37985 ft 371 kts 275°
2026-04-30 00:44 -34.82167 -59.67842 37994 ft 369 kts 274°
2026-04-30 00:45 -34.81144 -59.73975 37988 ft 369 kts 274°
2026-04-30 00:45 -34.80125 -59.80074 37993 ft 369 kts 274°
2026-04-30 00:46 -34.79097 -59.86205 37990 ft 369 kts 274°
2026-04-30 00:46 -34.78067 -59.92328 37993 ft 369 kts 274°
2026-04-30 00:47 -34.77031 -59.98448 37989 ft 369 kts 274°
2026-04-30 00:47 -34.75998 -60.04530 37993 ft 369 kts 274°
2026-04-30 00:48 -34.74956 -60.10648 37992 ft 369 kts 274°
2026-04-30 00:48 -34.73911 -60.16761 37996 ft 369 kts 274°
2026-04-30 00:49 -34.72862 -60.22877 37994 ft 369 kts 274°
2026-04-30 00:49 -34.71810 -60.28997 37995 ft 370 kts 274°
2026-04-30 00:50 -34.70754 -60.35115 37994 ft 370 kts 274°
2026-04-30 00:50 -34.69700 -60.41199 37999 ft 370 kts 274°
2026-04-30 00:51 -34.68635 -60.47331 38002 ft 370 kts 275°
2026-04-30 00:51 -34.67569 -60.53452 38007 ft 370 kts 275°
2026-04-30 00:52 -34.66498 -60.59576 38006 ft 370 kts 275°
2026-04-30 00:52 -34.65425 -60.65698 38008 ft 371 kts 275°
2026-04-30 00:53 -34.64348 -60.71824 38010 ft 371 kts 275°
2026-04-30 00:53 -34.63267 -60.77949 38012 ft 371 kts 275°
2026-04-30 00:54 -34.62190 -60.84038 38017 ft 371 kts 275°
2026-04-30 00:54 -34.61102 -60.90164 38025 ft 371 kts 275°
2026-04-30 00:55 -34.60012 -60.96285 38012 ft 371 kts 275°
2026-04-30 00:55 -34.58378 -61.05429 38021 ft 370 kts 275°
2026-04-30 00:56 -34.57275 -61.11578 38010 ft 370 kts 275°
2026-04-30 00:56 -34.56178 -61.17677 38016 ft 370 kts 275°
2026-04-30 00:57 -34.55077 -61.23775 38008 ft 370 kts 275°
2026-04-30 00:57 -34.53981 -61.29830 38010 ft 370 kts 275°
2026-04-30 00:58 -34.52875 -61.35920 38013 ft 370 kts 275°
2026-04-30 00:58 -34.51765 -61.42017 38014 ft 370 kts 275°
2026-04-30 00:59 -34.50652 -61.48111 38012 ft 370 kts 276°
2026-04-30 00:59 -34.49536 -61.54200 38019 ft 370 kts 276°
2026-04-30 01:00 -34.48422 -61.60261 38017 ft 370 kts 276°
2026-04-30 01:00 -34.47300 -61.66353 38012 ft 370 kts 276°
2026-04-30 01:01 -34.46172 -61.72452 38017 ft 370 kts 276°
2026-04-30 01:01 -34.45043 -61.78541 38020 ft 370 kts 276°
2026-04-30 01:02 -34.43917 -61.84601 38021 ft 371 kts 276°
2026-04-30 01:02 -34.42779 -61.90704 38020 ft 371 kts 276°
2026-04-30 01:03 -34.41640 -61.96792 38021 ft 371 kts 276°
2026-04-30 01:03 -34.40495 -62.02893 38022 ft 371 kts 276°
2026-04-30 01:04 -34.39348 -62.08990 38018 ft 372 kts 276°
2026-04-30 01:04 -34.38195 -62.15102 38018 ft 372 kts 276°
2026-04-30 01:05 -34.37047 -62.21171 38028 ft 372 kts 276°
2026-04-30 01:05 -34.35887 -62.27281 38028 ft 372 kts 276°
2026-04-30 01:06 -34.34724 -62.33393 38029 ft 372 kts 277°
2026-04-30 01:06 -34.33558 -62.39503 38025 ft 372 kts 277°
2026-04-30 01:07 -34.32585 -62.44583 38025 ft 372 kts 277°
2026-04-30 01:07 -34.31414 -62.50690 38021 ft 372 kts 277°
2026-04-30 01:08 -34.30240 -62.56789 38022 ft 372 kts 277°
2026-04-30 01:08 -34.29062 -62.62893 38019 ft 372 kts 277°
2026-04-30 01:09 -34.27882 -62.68992 38022 ft 372 kts 277°
2026-04-30 01:09 -34.26704 -62.75060 38021 ft 373 kts 277°
2026-04-30 01:10 -34.25518 -62.81155 38019 ft 373 kts 277°
2026-04-30 01:10 -34.24327 -62.87257 38019 ft 373 kts 277°
2026-04-30 01:11 -34.23134 -62.93351 38017 ft 373 kts 277°
2026-04-30 01:11 -34.21936 -62.99454 38020 ft 373 kts 277°
2026-04-30 01:12 -34.20735 -63.05556 38020 ft 373 kts 277°
2026-04-30 01:12 -34.19530 -63.11660 38020 ft 373 kts 277°
2026-04-30 01:13 -34.18323 -63.17761 38018 ft 374 kts 278°
2026-04-30 01:13 -34.17117 -63.23835 38020 ft 374 kts 278°
2026-04-30 01:14 -34.15901 -63.29947 38017 ft 374 kts 278°
2026-04-30 01:14 -34.14680 -63.36062 38023 ft 374 kts 278°
2026-04-30 01:15 -34.13456 -63.42177 38024 ft 374 kts 278°
2026-04-30 01:15 -34.12237 -63.48252 38023 ft 375 kts 278°
2026-04-30 01:16 -34.11007 -63.54364 38023 ft 375 kts 278°
2026-04-30 01:16 -34.09772 -63.60482 38021 ft 375 kts 278°
2026-04-30 01:17 -34.08535 -63.66597 38018 ft 375 kts 278°
2026-04-30 01:17 -34.07296 -63.72702 38017 ft 375 kts 278°
2026-04-30 01:18 -34.06053 -63.78813 38018 ft 375 kts 278°
2026-04-30 01:18 -34.04804 -63.84936 38015 ft 375 kts 278°
2026-04-30 01:19 -34.03763 -63.90026 38014 ft 376 kts 279°
2026-04-30 01:19 -34.02305 -63.97133 38017 ft 376 kts 279°
2026-04-30 01:20 -34.01044 -64.03266 38018 ft 376 kts 279°
2026-04-30 01:20 -33.99780 -64.09394 38018 ft 377 kts 279°
2026-04-30 01:21 -33.98521 -64.15483 38016 ft 377 kts 279°
2026-04-30 01:21 -33.97248 -64.21620 38022 ft 378 kts 279°
2026-04-30 01:22 -33.95969 -64.27772 38025 ft 378 kts 279°
2026-04-30 01:22 -33.94689 -64.33918 38024 ft 378 kts 279°
2026-04-30 01:23 -33.93406 -64.40073 38026 ft 378 kts 279°
2026-04-30 01:23 -33.92130 -64.46174 38030 ft 378 kts 279°
2026-04-30 01:24 -33.90842 -64.52325 38030 ft 378 kts 279°
2026-04-30 01:24 -33.89570 -64.58480 38027 ft 378 kts 279°
2026-04-30 01:25 -33.88305 -64.64623 38027 ft 378 kts 279°
2026-04-30 01:25 -33.87036 -64.70762 38029 ft 377 kts 280°
2026-04-30 01:26 -33.85766 -64.76888 38025 ft 377 kts 280°
2026-04-30 01:26 -33.84501 -64.82969 38026 ft 376 kts 280°
2026-04-30 01:27 -33.83227 -64.89073 38026 ft 376 kts 280°
2026-04-30 01:27 -33.81949 -64.95182 38024 ft 376 kts 280°
2026-04-30 01:28 -33.80670 -65.01278 38028 ft 376 kts 280°
2026-04-30 01:28 -33.79390 -65.07363 38029 ft 375 kts 280°
2026-04-30 01:29 -33.78114 -65.13413 38029 ft 375 kts 280°
2026-04-30 01:29 -33.76827 -65.19500 38033 ft 376 kts 281°
2026-04-30 01:30 -33.75536 -65.25591 38034 ft 376 kts 281°
2026-04-30 01:30 -33.74241 -65.31681 38038 ft 376 kts 281°
2026-04-30 01:31 -33.72941 -65.37782 38037 ft 377 kts 281°
2026-04-30 01:31 -33.71563 -65.43836 38039 ft 378 kts 282°
2026-04-30 01:32 -33.70108 -65.49931 38048 ft 379 kts 282°
2026-04-30 01:32 -33.68661 -65.56037 38035 ft 380 kts 282°
2026-04-30 01:33 -33.67219 -65.62145 38039 ft 381 kts 282°
2026-04-30 01:33 -33.65773 -65.68260 38041 ft 381 kts 282°
2026-04-30 01:34 -33.64320 -65.74387 38038 ft 382 kts 282°
2026-04-30 01:34 -33.62872 -65.80481 38039 ft 382 kts 283°
2026-04-30 01:35 -33.61408 -65.86623 38033 ft 383 kts 283°
2026-04-30 01:35 -33.59942 -65.92763 38036 ft 383 kts 283°
2026-04-30 01:36 -33.58472 -65.98903 38029 ft 383 kts 283°
2026-04-30 01:36 -33.56997 -66.05049 38029 ft 383 kts 283°
2026-04-30 01:37 -33.55527 -66.11157 38026 ft 383 kts 283°
2026-04-30 01:37 -33.54045 -66.17306 38025 ft 383 kts 283°
2026-04-30 01:38 -33.52562 -66.23440 38024 ft 383 kts 283°
2026-04-30 01:38 -33.51075 -66.29577 38030 ft 383 kts 283°
2026-04-30 01:39 -33.49585 -66.35713 38032 ft 384 kts 283°
2026-04-30 01:39 -33.47862 -66.41749 38029 ft 385 kts 288°
2026-04-30 01:40 -33.45958 -66.47743 38027 ft 385 kts 287°
2026-04-30 01:40 -33.44054 -66.53758 38025 ft 385 kts 287°
2026-04-30 01:41 -33.42172 -66.59768 38018 ft 384 kts 285°
2026-04-30 01:41 -33.40664 -66.65846 38009 ft 384 kts 283°
2026-04-30 01:42 -33.39162 -66.71976 37999 ft 383 kts 284°
2026-04-30 01:42 -33.37654 -66.78096 37993 ft 383 kts 284°
2026-04-30 01:43 -33.36142 -66.84219 37993 ft 383 kts 284°
2026-04-30 01:43 -33.35390 -66.87255 37827 ft 375 kts 284°
2026-04-30 01:43 -33.34648 -66.90251 36945 ft 377 kts 284°
2026-04-30 01:44 -33.33898 -66.93283 35925 ft 384 kts 284°
2026-04-30 01:44 -33.33136 -66.96359 34936 ft 389 kts 284°
2026-04-30 01:44 -33.32368 -66.99453 33997 ft 394 kts 284°
2026-04-30 01:44 -33.31571 -67.02656 32913 ft 398 kts 284°
2026-04-30 01:45 -33.30787 -67.05801 31883 ft 402 kts 284°
2026-04-30 01:45 -33.29981 -67.09030 30826 ft 405 kts 284°
2026-04-30 01:45 -33.29170 -67.12275 29807 ft 408 kts 284°
2026-04-30 01:45 -33.28360 -67.15509 28943 ft 403 kts 284°
2026-04-30 01:46 -33.27560 -67.18698 28145 ft 398 kts 284°
2026-04-30 01:46 -33.26769 -67.21848 27351 ft 394 kts 284°
2026-04-30 01:46 -33.25988 -67.24960 26567 ft 390 kts 284°
2026-04-30 01:46 -33.25195 -67.28041 25779 ft 386 kts 285°
2026-04-30 01:47 -33.24343 -67.31069 25042 ft 383 kts 285°
2026-04-30 01:47 -33.23476 -67.34062 24316 ft 379 kts 285°
2026-04-30 01:47 -33.22625 -67.36995 23610 ft 376 kts 285°
2026-04-30 01:47 -33.21779 -67.39934 22779 ft 373 kts 285°
2026-04-30 01:48 -33.20943 -67.42859 21977 ft 370 kts 285°
2026-04-30 01:48 -33.20117 -67.45759 21184 ft 367 kts 285°
2026-04-30 01:48 -33.19296 -67.48645 20411 ft 365 kts 285°
2026-04-30 01:48 -33.18482 -67.51502 19660 ft 363 kts 285°
2026-04-30 01:49 -33.17670 -67.54351 18926 ft 361 kts 285°
2026-04-30 01:49 -33.16873 -67.57143 18214 ft 359 kts 286°
2026-04-30 01:49 -33.16069 -67.59957 17444 ft 356 kts 286°
2026-04-30 01:49 -33.15276 -67.62733 16718 ft 352 kts 287°
2026-04-30 01:50 -33.14488 -67.65495 16003 ft 349 kts 287°
2026-04-30 01:50 -33.13709 -67.68221 15316 ft 346 kts 287°
2026-04-30 01:50 -33.12934 -67.70932 14640 ft 344 kts 288°
2026-04-30 01:50 -33.12180 -67.73632 13979 ft 341 kts 286°
2026-04-30 01:51 -33.11673 -67.76382 13262 ft 339 kts 279°
2026-04-30 01:51 -33.11463 -67.79179 12515 ft 338 kts 275°
2026-04-30 01:51 -33.11311 -67.81981 11781 ft 338 kts 275°
2026-04-30 01:51 -33.11150 -67.84785 11066 ft 337 kts 275°
2026-04-30 01:52 -33.10988 -67.87530 10384 ft 336 kts 276°
2026-04-30 01:52 -33.10823 -67.90279 10081 ft 324 kts 276°
2026-04-30 01:52 -33.10668 -67.92884 9931 ft 308 kts 276°
2026-04-30 01:52 -33.10518 -67.95372 9749 ft 294 kts 276°
2026-04-30 01:53 -33.10371 -67.97785 9318 ft 290 kts 277°
2026-04-30 01:53 -33.10223 -68.00177 8828 ft 289 kts 277°
2026-04-30 01:53 -33.10076 -68.02565 8349 ft 287 kts 277°
2026-04-30 01:53 -33.09929 -68.04939 7883 ft 286 kts 277°
2026-04-30 01:54 -33.09784 -68.07304 7428 ft 285 kts 277°
2026-04-30 01:54 -33.09640 -68.09643 7099 ft 279 kts 277°
2026-04-30 01:54 -33.09503 -68.11893 7003 ft 265 kts 277°
2026-04-30 01:54 -33.09375 -68.13993 6988 ft 249 kts 278°
2026-04-30 01:55 -33.09248 -68.16024 6694 ft 247 kts 278°
2026-04-30 01:55 -33.09114 -68.18106 6164 ft 256 kts 278°
2026-04-30 01:55 -33.08974 -68.20267 5672 ft 261 kts 278°
2026-04-30 01:55 -33.08842 -68.22393 5503 ft 251 kts 278°
2026-04-30 01:56 -33.08721 -68.24399 5465 ft 237 kts 278°
2026-04-30 01:56 -33.08605 -68.26307 5467 ft 223 kts 279°
2026-04-30 01:56 -33.08531 -68.27511 5463 ft 215 kts 279°
2026-04-30 01:56 -33.08423 -68.29226 5467 ft 213 kts 279°
2026-04-30 01:57 -33.08280 -68.31215 6060 ft 254 kts 279°
2026-04-30 01:57 -33.08121 -68.33462 6661 ft 295 kts 278°
2026-04-30 01:57 -33.07943 -68.36111 6893 ft 343 kts 277°
2026-04-30 01:57 -33.07761 -68.39008 6964 ft 346 kts 277°
2026-04-30 01:58 -33.07599 -68.41788 6969 ft 321 kts 277°
2026-04-30 01:58 -33.07450 -68.44332 6969 ft 298 kts 277°
2026-04-30 01:58 -33.07304 -68.46712 6969 ft 278 kts 278°
2026-04-30 01:58 -33.07163 -68.48936 6968 ft 260 kts 278°
2026-04-30 01:59 -33.06897 -68.52905 6974 ft 229 kts 279°
2026-04-30 01:59 -33.06767 -68.54729 6973 ft 216 kts 279°
2026-04-30 01:59 -33.06638 -68.56470 6972 ft 203 kts 280°
2026-04-30 02:00 -33.06513 -68.58092 6986 ft 205 kts 281°
2026-04-30 02:00 -33.06318 -68.60086 6988 ft 269 kts 281°
2026-04-30 02:00 -33.06071 -68.62339 6980 ft 281 kts 279°
2026-04-30 02:00 -33.05917 -68.64694 6986 ft 284 kts 277°
2026-04-30 02:01 -33.05795 -68.67008 6872 ft 280 kts 277°
2026-04-30 02:01 -33.05677 -68.69344 6339 ft 279 kts 277°
2026-04-30 02:01 -33.05559 -68.71650 5771 ft 274 kts 277°
2026-04-30 02:01 -33.05445 -68.73850 5555 ft 257 kts 277°
2026-04-30 02:02 -33.05339 -68.75884 5495 ft 236 kts 277°
2026-04-30 02:02 -33.05192 -68.77738 5480 ft 212 kts 290°
2026-04-30 02:02 -33.04457 -68.79076 5500 ft 189 kts 333°
2026-04-30 02:02 -33.03211 -68.79527 5521 ft 191 kts 354°
2026-04-30 02:03 -33.01909 -68.79594 5408 ft 184 kts
2026-04-30 02:03 -33.00659 -68.79548 5329 ft 175 kts
2026-04-30 02:03 -32.99475 -68.79532 5178 ft 171 kts
2026-04-30 02:03 -32.98293 -68.79513 4992 ft 169 kts
2026-04-30 02:04 -32.97124 -68.79496 4799 ft 168 kts
2026-04-30 02:04 -32.95964 -68.79479 4614 ft 163 kts
2026-04-30 02:04 -32.94857 -68.79462 4385 ft 154 kts
2026-04-30 02:04 -32.93812 -68.79446 4179 ft 147 kts
2026-04-30 02:05 -32.92809 -68.79431 3987 ft 143 kts
2026-04-30 02:05 -32.91807 -68.79416 3800 ft 143 kts
2026-04-30 02:05 -32.90808 -68.79401 3592 ft 144 kts 359°
2026-04-30 02:05 -32.89800 -68.79387 3409 ft 146 kts 359°
2026-04-30 02:06 -32.88790 -68.79371 3215 ft 144 kts 359°
2026-04-30 02:06 -32.87807 -68.79357 3038 ft 141 kts 359°
2026-04-30 02:06 -32.86832 -68.79340 2860 ft 141 kts 360°
2026-04-30 02:06 -32.85823 -68.79329 2685 ft 152 kts 359°
2026-04-30 02:07 -32.84741 -68.79321 2505 ft 149 kts 359°
2026-04-30 02:07 -32.83763 -68.79301 2378 ft 131 kts 360°
2026-04-30 02:07 -32.83100 -68.79291 2375 ft 51 kts
2026-04-30 02:07 -32.82842 -68.79282 2384 ft 37 kts
2026-04-30 02:08 -32.82604 -68.79281 2385 ft 21 kts 356°
2026-04-30 02:08 -32.82559 -68.79391 2382 ft 17 kts 233°
2026-04-30 02:08 -32.82609 -68.79456 2381 ft 0 kts 226°
2026-04-30 02:09 -32.82610 -68.79457 2381 ft 2 kts 226°
2026-04-30 02:09 -32.82637 -68.79490 2382 ft 9 kts 226°
2026-04-30 02:09 -32.82671 -68.79582 2382 ft 15 kts 258°
2026-04-30 02:10 -32.82674 -68.79679 2380 ft 10 kts 264°
2026-04-30 02:10 -32.82699 -68.79704 2377 ft 0 kts 186°
2026-04-30 02:11 -32.82701 -68.79704 2381 ft 2 kts 186°
2026-04-30 02:11 -32.82735 -68.79708 2381 ft 8 kts 185°
2026-04-30 02:11 -32.82813 -68.79708 2381 ft 14 kts 176°
2026-04-30 02:11 -32.82838 -68.79730 2381 ft 4 kts 270°
2026-04-30 02:12 -32.82840 -68.79761 2381 ft 2 kts 269°
2026-04-30 02:12 -32.82840 -68.79777 2379 ft 0 kts 270°